When you browse on this site, cookies collect data to enhance your experience and personalize the content and advertising you see.
Visit our Privacy Policy to learn more. By continuing to use the site, you agree to this use of cookies and data.
  • In Austria
  • List of Countries
  • For 7 days
  • Water Temperature
  • Weather Map
  • News
  • Weather Widgets
  • user-avatar
    Login

    Hourly Weather Garmisch-Partenkirchen

    Today, 25 May, Monday

    Time Temperature Precipitation Wind Pressure Humidity
    00:00 +7°C° 0 mm 1 mps 684 mmHg 92%
    01:00 +6°C° 0 mm 0 mps 684 mmHg 94%
    02:00 +7°C° 0.1 mm 1 mps 684 mmHg 93%
    03:00 +7°C° 0.1 mm 1 mps 684 mmHg 93%
    04:00 +7°C° 0.1 mm 1 mps 684 mmHg 92%
    05:00 +8°C° 0.1 mm 1 mps 684 mmHg 91%
    06:00 +9°C° 0.1 mm 1 mps 684 mmHg 90%
    07:00 +10°C° 0 mm 1 mps 684 mmHg 91%
    08:00 +10°C° 0.3 mm 1 mps 684 mmHg 86%
    09:00 +10°C° 0.3 mm 2 mps 684 mmHg 82%
    10:00 +12°C° 0.3 mm 2 mps 684 mmHg 78%
    11:00 +13°C° 0.4 mm 2 mps 684 mmHg 76%
    12:00 +13°C° 0.4 mm 2 mps 684 mmHg 74%
    13:00 +14°C° 0 mm 2 mps 684 mmHg 74%
    14:00 +14°C° 0.4 mm 2 mps 684 mmHg 73%
    15:00 +14°C° 0.4 mm 2 mps 684 mmHg 72%
    16:00 +14°C° 0.4 mm 2 mps 683 mmHg 71%
    17:00 +13°C° 0.5 mm 2 mps 683 mmHg 77%
    18:00 +12°C° 0.5 mm 2 mps 683 mmHg 84%
    19:00 +11°C° 0.5 mm 1 mps 683 mmHg 91%
    20:00 +10°C° 0.5 mm 1 mps 684 mmHg 93%
    21:00 +9°C° 0.5 mm 1 mps 684 mmHg 95%
    22:00 +9°C° 0.5 mm 1 mps 685 mmHg 96%
    23:00 +8°C° 0.3 mm 1 mps 685 mmHg 97%

    Tomorrow, 26 May, Tuesday

    Time Temperature Precipitation Wind Pressure Humidity
    00:00 +8°C° 0.3 mm 1 mps 685 mmHg 97%
    01:00 +7°C° 0.3 mm 1 mps 685 mmHg 98%
    02:00 +6°C° 0 mm 0 mps 684 mmHg 97%
    03:00 +5°C° 0 mm 0 mps 684 mmHg 97%
    04:00 +5°C° 0 mm 0 mps 684 mmHg 97%
    05:00 +6°C° 0 mm 0 mps 684 mmHg 95%
    06:00 +7°C° 0 mm 0 mps 684 mmHg 93%
    07:00 +8°C° 0 mm 0 mps 684 mmHg 91%
    08:00 +10°C° 0 mm 1 mps 685 mmHg 82%
    09:00 +12°C° 0 mm 1 mps 685 mmHg 73%
    10:00 +13°C° 0 mm 1 mps 685 mmHg 65%
    11:00 +14°C° 0 mm 2 mps 685 mmHg 60%
    12:00 +14°C° 0 mm 2 mps 685 mmHg 56%
    13:00 +15°C° 0 mm 2 mps 685 mmHg 51%
    14:00 +15°C° 0 mm 2 mps 685 mmHg 50%
    15:00 +15°C° 0 mm 2 mps 684 mmHg 49%
    16:00 +14°C° 0 mm 3 mps 684 mmHg 48%
    17:00 +14°C° 0 mm 2 mps 684 mmHg 57%
    18:00 +13°C° 0 mm 2 mps 684 mmHg 65%
    19:00 +10°C° 0 mm 2 mps 684 mmHg 74%
    20:00 +10°C° 0 mm 1 mps 684 mmHg 81%
    21:00 +8°C° 0 mm 1 mps 684 mmHg 88%
    22:00 +5°C° 0 mm 0 mps 685 mmHg 95%
    23:00 +6°C° 0 mm 1 mps 684 mmHg 94%

    Day after tomorrow, 27 May, Wednesday

    Time Temperature Precipitation Wind Pressure Humidity
    00:00 +5°C° 0 mm 1 mps 684 mmHg 94%
    01:00 +5°C° 0 mm 1 mps 684 mmHg 94%
    02:00 +5°C° 0 mm 1 mps 684 mmHg 93%
    03:00 +4°C° 0 mm 1 mps 684 mmHg 93%
    04:00 +4°C° 0 mm 1 mps 684 mmHg 93%
    05:00 +6°C° 0 mm 1 mps 684 mmHg 84%
    06:00 +8°C° 0 mm 1 mps 684 mmHg 76%
    07:00 +10°C° 0 mm 1 mps 685 mmHg 68%
    08:00 +12°C° 0 mm 1 mps 685 mmHg 59%
    09:00 +14°C° 0 mm 2 mps 685 mmHg 50%
    10:00 +16°C° 0 mm 2 mps 685 mmHg 41%
    11:00 +17°C° 0 mm 2 mps 685 mmHg 40%
    12:00 +18°C° 0 mm 3 mps 685 mmHg 39%
    13:00 +18°C° 0 mm 3 mps 685 mmHg 38%
    14:00 +18°C° 0 mm 3 mps 685 mmHg 40%
    15:00 +18°C° 0 mm 3 mps 684 mmHg 43%
    16:00 +18°C° 0 mm 3 mps 684 mmHg 45%
    17:00 +17°C° 0 mm 2 mps 684 mmHg 54%
    18:00 +15°C° 0 mm 2 mps 684 mmHg 63%
    19:00 +13°C° 0 mm 1 mps 684 mmHg 72%
    20:00 +12°C° 0 mm 1 mps 683 mmHg 78%
    21:00 +10°C° 0 mm 1 mps 683 mmHg 84%
    22:00 +7°C° 0 mm 0 mps 683 mmHg 91%
    23:00 +7°C° 0 mm 1 mps 683 mmHg 91%

    28 May, Thursday

    Time Temperature Precipitation Wind Pressure Humidity
    00:00 +7°C° 0 mm 1 mps 683 mmHg 91%
    01:00 +7°C° 0 mm 1 mps 683 mmHg 91%
    02:00 +7°C° 0 mm 1 mps 683 mmHg 89%
    03:00 +7°C° 0 mm 1 mps 682 mmHg 87%
    04:00 +7°C° 0 mm 1 mps 682 mmHg 85%
    05:00 +9°C° 0 mm 1 mps 683 mmHg 78%
    06:00 +10°C° 0 mm 0 mps 683 mmHg 71%
    07:00 +12°C° 0 mm 0 mps 683 mmHg 63%
    08:00 +14°C° 0 mm 1 mps 683 mmHg 58%
    09:00 +16°C° 0 mm 1 mps 683 mmHg 53%
    10:00 +17°C° 0 mm 2 mps 683 mmHg 48%
    11:00 +17°C° 0.2 mm 2 mps 683 mmHg 49%
    12:00 +18°C° 0.2 mm 2 mps 683 mmHg 51%
    13:00 +18°C° 0.2 mm 2 mps 682 mmHg 52%
    14:00 +17°C° 0.5 mm 2 mps 682 mmHg 61%
    15:00 +16°C° 0.5 mm 2 mps 681 mmHg 70%
    16:00 +15°C° 0.5 mm 2 mps 680 mmHg 79%
    17:00 +14°C° 0.4 mm 2 mps 680 mmHg 84%
    18:00 +13°C° 0.4 mm 1 mps 680 mmHg 88%
    19:00 +12°C° 0.4 mm 1 mps 680 mmHg 93%
    20:00 +11°C° 0 mm 1 mps 680 mmHg 94%
    21:00 +9°C° 0 mm 0 mps 680 mmHg 95%
    22:00 +8°C° 0 mm 0 mps 680 mmHg 96%
    23:00 +7°C° 0 mm 0 mps 680 mmHg 96%

    29 May, Friday

    Time Temperature Precipitation Wind Pressure Humidity
    00:00 +7°C° 0 mm 0 mps 680 mmHg 96%
    01:00 +6°C° 0 mm 0 mps 679 mmHg 95%
    02:00 +6°C° 0 mm 0 mps 679 mmHg 95%
    03:00 +6°C° 0 mm 0 mps 679 mmHg 95%
    04:00 +5°C° 0 mm 0 mps 679 mmHg 95%
    05:00 +7°C° 0 mm 0 mps 679 mmHg 93%
    06:00 +8°C° 0 mm 0 mps 679 mmHg 91%
    07:00 +10°C° 0 mm 0 mps 679 mmHg 89%
    08:00 +12°C° 0 mm 1 mps 679 mmHg 82%
    09:00 +13°C° 0 mm 1 mps 679 mmHg 75%
    10:00 +14°C° 0 mm 2 mps 679 mmHg 69%
    11:00 +15°C° 0.1 mm 2 mps 679 mmHg 64%
    12:00 +16°C° 0.1 mm 2 mps 679 mmHg 58%
    13:00 +17°C° 0.1 mm 2 mps 678 mmHg 53%
    14:00 +17°C° 0 mm 2 mps 678 mmHg 51%
    15:00 +17°C° 0 mm 2 mps 678 mmHg 49%
    16:00 +17°C° 0 mm 3 mps 678 mmHg 47%
    17:00 +15°C° 0 mm 2 mps 677 mmHg 54%
    18:00 +14°C° 0 mm 2 mps 677 mmHg 61%
    19:00 +13°C° 0 mm 2 mps 677 mmHg 67%
    20:00 +11°C° 0 mm 1 mps 677 mmHg 75%
    21:00 +9°C° 0 mm 1 mps 676 mmHg 83%
    22:00 +5°C° 0 mm 0 mps 676 mmHg 91%
    23:00 +5°C° 0 mm 0 mps 676 mmHg 92%

    30 May, Saturday

    Time Temperature Precipitation Wind Pressure Humidity
    00:00 +5°C° 0 mm 0 mps 676 mmHg 92%
    01:00 +5°C° 0 mm 0 mps 676 mmHg 92%
    02:00 +4°C° 0 mm 0 mps 676 mmHg 92%
    03:00 +4°C° 0 mm 0 mps 676 mmHg 93%
    04:00 +4°C° 0 mm 0 mps 675 mmHg 93%
    05:00 +6°C° 0 mm 0 mps 676 mmHg 86%
    06:00 +8°C° 0 mm 0 mps 676 mmHg 78%
    07:00 +11°C° 0 mm 1 mps 677 mmHg 71%
    08:00 +12°C° 0 mm 1 mps 677 mmHg 64%
    09:00 +13°C° 0 mm 2 mps 677 mmHg 57%
    10:00 +15°C° 0 mm 2 mps 677 mmHg 51%
    11:00 +15°C° 0 mm 2 mps 677 mmHg 49%
    12:00 +14°C° 0 mm 3 mps 677 mmHg 48%
    13:00 +16°C° 0 mm 3 mps 677 mmHg 47%
    14:00 +14°C° 0.1 mm 3 mps 677 mmHg 49%
    15:00 +14°C° 0.1 mm 3 mps 677 mmHg 52%
    16:00 +14°C° 0.1 mm 3 mps 677 mmHg 54%
    17:00 +13°C° 0.1 mm 3 mps 677 mmHg 61%
    18:00 +12°C° 0.1 mm 2 mps 677 mmHg 69%
    19:00 +10°C° 0.1 mm 2 mps 676 mmHg 77%
    20:00 +8°C° 0 mm 2 mps 676 mmHg 83%
    21:00 +8°C° 0 mm 1 mps 677 mmHg 89%
    22:00 +6°C° 0 mm 1 mps 677 mmHg 96%
    23:00 +5°C° 0 mm 1 mps 676 mmHg 96%
    Show more